Theta_e
305 306 306 307 307 306 307 308 307 308 308 308 307 307 307 308 309 310 310 310 311 311 312 313 313 315 315 316 320 324 324 321 327 320 317 318 317 315 315 315 315 316 318
304 305 305 306 306 307 307 307 307 307 307 308 308 307 307 307 309 311 310 310 309 309 309 310 312 312 313 314 315 317 318 319 320 319 317 310 315 316 315 315 314 313 315
303 304 305 306 307 307 307 307 307 307 307 308 308 307 308 308 308 309 309 310 309 309 309 309 310 310 312 312 314 315 316 315 320 317 313 308 306 315 318 316 315 314 314
304 304 304 305 306 307 308 307 307 307 307 307 306 305 305 304 306 307 309 308 308 308 308 308 309 309 309 309 310 310 312 314 312 315 315 312 311 307 309 316 315 315 314
303 303 303 304 305 306 307 307 307 307 306 306 306 306 304 305 306 306 306 307 308 309 309 308 308 309 308 308 308 308 308 310 309 312 312 313 310 309 306 302 311 311 313
302 303 304 304 305 306 307 308 306 305 305 305 304 305 305 303 303 304 304 305 307 308 307 308 308 309 309 308 308 309 309 308 309 310 311 311 309 305 305 304 305 306 309
302 302 303 303 304 305 305 305 304 303 304 303 303 303 305 304 302 302 303 303 305 306 307 307 307 307 309 309 309 307 308 308 308 309 308 310 311 312 308 306 305 304 307
302 302 303 303 303 304 304 304 303 302 303 302 302 302 303 303 303 303 302 303 304 305 307 306 306 306 306 307 307 306 307 308 308 309 309 309 310 312 311 309 304 300 302
302 302 303 303 303 304 303 303 302 302 301 301 301 300 301 301 302 302 303 303 304 304 304 305 305 305 305 305 306 305 305 305 306 308 309 308 309 310 311 311 309 304 299
301 301 302 302 303 303 303 303 302 300 300 300 300 300 300 301 302 302 302 303 303 304 304 305 304 304 304 304 304 304 305 304 304 307 308 307 308 308 310 311 311 309 305
301 301 301 302 303 302 302 301 300 299 298 299 300 299 300 300 300 300 301 301 302 303 303 303 302 302 303 303 303 303 303 303 303 305 307 306 307 307 308 310 310 310 308
302 301 301 302 301 301 301 299 298 298 299 299 299 299 299 299 298 298 299 299 299 301 301 301 302 302 302 302 302 302 302 302 302 303 305 305 304 306 308 307 308 309 310
300 300 300 300 300 300 298 297 297 297 298 298 298 298 298 298 298 298 298 298 298 298 299 299 298 299 300 300 301 301 301 301 302 302 302 303 304 304 305 306 306 308 308
299 299 299 299 299 298 297 296 296 297 298 298 297 297 297 298 299 299 299 298 297 296 297 297 297 298 299 300 300 300 301 301 302 302 302 302 302 304 304 304 305 305 306
298 298 298 298 297 296 296 296 296 297 297 297 296 297 297 298 297 296 296 297 297 296 296 296 297 297 298 298 299 300 300 300 301 302 303 303 305 309 306 304 304 305 304
297 297 297 296 295 294 295 295 295 296 297 295 295 297 296 295 294 295 296 296 296 297 296 296 296 296 296 299 301 301 299 300 300 300 301 303 307 305 306 307 307 306 303
296 296 296 294 294 294 295 294 295 296 295 294 294 294 294 293 294 294 294 294 294 295 295 295 296 295 296 300 301 302 300 300 300 298 298 301 301 305 303 304 306 306 308
296 296 294 294 294 295 295 295 295 295 294 293 293 293 293 293 294 294 293 294 294 294 294 293 295 295 296 299 300 301 299 300 299 300 301 301 301 302 303 301 301 302 304
296 295 294 294 294 294 295 294 293 293 292 291 293 293 294 293 293 292 293 294 293 294 293 295 294 294 295 299 300 299 298 298 298 300 300 301 301 304 304 301 300 300 301
295 294 294 294 294 294 294 292 292 291 291 292 293 294 294 292 293 293 293 294 294 293 293 293 294 295 295 298 299 299 298 296 297 299 300 303 302 302 302 300 300 298 298
294 294 293 293 293 294 293 291 291 290 292 293 294 293 292 293 293 293 294 293 293 293 293 293 294 294 295 295 298 300 297 297 297 297 297 299 302 302 302 303 299 298 301
293 293 292 292 293 293 292 291 290 293 293 292 292 292 292 293 293 293 293 294 293 293 293 292 293 294 294 296 297 299 299 298 296 296 297 298 301 301 302 302 302 304 304
292 293 292 291 292 293 293 290 291 292 292 292 291 291 292 292 293 293 293 292 292 291 292 292 292 293 293 293 296 298 299 299 296 297 298 299 300 301 302 303 304 305 302
291 292 291 290 291 293 292 291 292 292 291 291 291 291 291 292 293 293 293 292 292 291 291 291 291 293 293 293 294 294 295 298 298 298 298 299 300 302 302 302 303 303 303
291 292 290 290 290 291 291 291 292 292 291 291 291 291 291 292 291 292 292 293 294 294 292 293 294 292 292 294 296 296 296 297 298 297 298 298 298 298 299 300 302 303 303
291 290 290 290 290 290 290 291 292 293 291 290 290 291 291 291 291 291 291 296 298 298 298 298 297 296 298 299 299 299 299 299 300 296 295 295 293 295 297 298 298 300 301
Wind_Speed
7 5 3 1 1 3 6 7 9 11 10 9 9 9 9 10 9 9 11 11 12 11 11 8 9 8 8 9 8 7 8 8 11 8 10 9 12 14 10 10 9 10 11
9 8 6 3 3 5 4 8 9 10 9 8 8 9 10 10 10 9 11 12 13 12 12 11 9 10 7 9 9 8 8 9 7 8 8 10 11 12 12 11 11 13 10
9 7 7 4 4 6 5 7 8 9 9 9 8 9 10 9 9 9 9 10 13 14 15 13 12 11 9 8 9 8 9 8 7 6 4 4 7 5 10 15 11 12 9
9 7 6 5 7 8 5 7 8 10 10 12 11 15 11 12 10 11 10 12 15 15 15 15 13 12 9 10 9 10 9 8 9 7 8 10 5 4 5 4 8 11 11
10 8 5 5 7 7 6 7 9 11 13 14 14 11 13 11 10 11 16 15 14 15 15 15 15 12 10 11 12 12 12 9 10 8 8 9 8 8 9 5 6 6 5
9 8 7 6 6 3 5 7 10 12 14 14 16 15 15 17 14 14 13 11 11 10 14 15 14 12 11 11 10 11 12 12 11 10 9 9 8 6 8 11 12 12 5
10 9 7 5 5 5 6 9 11 14 16 17 17 17 15 17 18 17 12 15 11 10 12 15 14 12 12 11 11 13 12 12 12 12 10 9 9 8 7 9 9 9 7
10 8 7 5 7 7 10 12 14 17 17 17 18 17 17 11 12 14 14 12 12 12 14 15 15 16 16 14 13 12 12 12 12 15 12 9 9 8 8 9 6 6 9
10 8 8 7 8 10 12 14 16 17 18 18 17 18 18 17 15 18 16 12 15 13 16 16 16 16 16 16 17 13 14 13 13 14 13 11 9 9 8 9 9 10 9
9 8 8 8 9 11 13 15 16 18 18 18 17 15 18 19 17 16 18 18 17 17 18 17 16 17 17 16 19 16 15 15 12 12 14 12 9 10 9 9 9 9 10
11 7 9 9 11 12 14 15 16 18 17 17 17 18 18 19 19 17 18 18 19 18 19 18 18 18 18 16 18 19 16 16 15 15 14 14 12 9 8 8 8 9 7
7 8 10 11 13 14 15 16 16 17 17 17 18 18 18 18 18 18 20 20 20 19 19 19 19 19 17 16 18 19 16 16 16 16 16 14 10 13 11 8 11 8 10
7 11 11 12 13 15 16 16 16 17 17 17 18 18 18 18 19 20 20 20 19 19 19 19 19 19 18 18 17 17 17 16 16 15 14 14 13 13 10 10 9 9 8
8 9 11 12 14 16 16 16 17 17 17 18 18 19 20 19 18 20 20 19 17 18 19 20 19 19 18 17 18 16 17 16 15 17 15 15 15 16 10 10 10 10 8
9 10 11 13 15 16 16 16 16 17 17 18 19 20 19 20 19 19 19 18 19 18 19 20 20 19 18 14 16 17 15 17 19 16 15 14 16 17 13 8 8 9 9
9 11 14 16 16 16 16 17 17 17 17 19 20 19 19 18 19 19 18 20 20 20 19 21 19 18 14 26 30 23 14 16 17 13 14 17 17 14 17 20 20 16 11
9 13 15 15 15 16 16 17 17 17 18 18 20 19 18 19 18 20 20 20 19 20 19 19 18 19 18 28 29 30 17 16 15 11 14 19 10 15 13 15 20 22 24
12 13 13 14 15 16 16 17 17 18 19 20 21 19 18 19 19 20 20 20 17 18 16 15 19 18 15 27 27 27 17 16 17 17 17 11 12 13 8 9 11 11 9
11 12 12 14 15 16 16 17 17 18 17 18 19 19 19 20 20 20 21 17 17 14 14 14 17 16 15 24 23 21 14 15 15 15 16 15 12 18 15 10 11 10 9
10 12 13 14 14 15 16 17 17 16 18 18 19 20 19 20 21 20 19 16 14 14 12 15 16 20 17 22 23 20 9 13 11 13 14 26 16 17 17 13 12 11 10
12 12 13 13 14 15 15 17 17 16 17 19 20 19 20 21 20 19 17 16 14 15 15 14 14 15 16 13 21 22 13 9 10 10 11 11 15 18 23 24 12 13 12
12 12 12 13 14 14 15 15 17 19 18 19 20 20 20 17 16 19 17 15 13 14 15 13 13 10 13 17 18 22 24 18 12 11 8 9 15 18 18 16 21 23 22
11 11 12 14 14 14 14 17 17 17 18 19 20 20 20 18 17 17 16 13 11 11 11 10 10 10 9 9 21 24 25 25 16 10 14 21 22 22 20 25 24 22 10
10 11 13 14 15 14 15 15 19 17 18 20 21 18 17 20 17 13 12 12 10 9 10 10 10 10 9 9 9 9 9 17 16 17 14 17 19 21 17 15 15 11 9
10 10 12 13 15 15 15 16 17 16 18 19 18 18 14 16 16 14 13 11 12 11 10 10 10 10 11 12 18 16 10 8 10 11 8 8 8 8 9 10 11 10 8
10 10 13 14 14 14 15 16 15 17 19 17 15 14 13 13 12 12 13 19 18 20 22 23 16 12 24 36 34 29 26 24 24 9 9 7 8 12 11 8 8 6 12
Wind_Direction
163 165 146 143 0 19 12 7 12 2 0 354 351 344 338 333 334 330 317 326 323 325 319 308 305 305 303 304 294 275 277 296 286 256 267 257 257 230 221 227 227 210 197
194 188 188 214 290 315 358 347 354 352 345 343 334 327 319 323 312 307 309 317 314 315 308 305 298 298 294 293 291 277 276 274 280 282 269 259 246 230 232 211 222 223 203
218 207 215 220 245 277 318 321 318 323 331 324 317 312 313 304 304 301 304 299 300 301 301 298 293 293 292 292 289 282 276 261 261 277 271 271 254 280 208 226 212 219 215
223 239 251 269 279 282 267 278 300 310 314 325 319 314 309 302 303 299 292 296 287 289 288 290 286 288 286 284 281 277 268 260 259 242 247 248 273 315 329 294 246 206 222
223 226 245 278 286 293 298 306 297 303 317 318 312 306 300 298 296 291 296 290 289 286 288 283 283 283 283 283 288 291 287 279 278 253 239 240 245 244 255 289 260 259 238
220 223 244 254 262 298 279 291 304 308 312 309 307 307 303 301 300 296 292 288 284 279 278 281 279 273 271 281 288 280 277 279 270 275 261 224 234 227 226 241 258 283 216
209 224 235 256 290 295 295 296 307 308 309 308 307 304 301 298 297 297 292 294 290 287 287 288 281 278 275 267 270 279 269 273 270 261 261 262 237 238 222 221 243 261 285
210 225 245 262 278 292 303 307 310 311 309 308 306 306 305 300 300 297 294 290 290 289 287 283 283 282 282 281 275 267 264 247 255 256 259 263 266 247 225 241 230 233 243
219 235 252 268 286 300 309 311 311 306 312 311 311 309 307 305 302 300 295 294 290 285 281 279 281 279 277 278 280 267 262 266 257 254 242 243 247 249 253 215 223 239 244
223 244 265 281 293 306 312 309 309 308 310 311 311 310 306 302 299 297 295 293 292 292 287 278 280 277 276 274 270 261 252 257 260 259 247 246 243 249 248 245 212 226 242
225 262 282 291 304 304 309 310 311 312 311 311 309 308 306 305 304 302 301 299 297 293 286 286 281 273 267 268 271 260 253 249 254 254 250 247 247 246 253 264 246 214 228
250 269 280 295 301 309 313 313 313 311 310 311 310 307 305 304 303 301 300 300 297 296 295 292 287 278 274 272 269 263 256 257 254 248 251 248 246 253 238 244 263 250 218
249 266 296 303 305 312 314 314 313 313 313 311 307 303 304 304 300 297 296 298 297 298 297 294 290 286 281 276 270 271 268 258 265 257 256 253 245 243 233 233 238 249 245
275 303 293 303 310 313 315 315 315 315 312 306 304 304 304 304 309 313 309 305 296 291 287 284 284 284 281 278 273 260 279 276 257 254 254 254 248 241 239 251 252 254 251
286 297 310 312 312 314 316 316 315 311 308 307 309 307 309 310 309 305 296 290 296 290 286 282 279 281 277 272 259 259 251 256 266 275 251 236 248 258 250 259 261 258 256
307 316 312 314 315 317 316 316 311 312 317 316 307 312 309 299 298 293 294 300 292 285 279 282 278 277 274 272 273 268 254 266 251 259 285 256 234 242 250 257 255 258 272
318 316 315 316 316 317 316 312 312 315 311 310 315 304 301 297 300 299 294 295 286 286 276 274 281 274 267 270 267 263 252 251 248 226 257 248 244 227 228 242 246 242 243
318 316 317 317 316 313 311 310 315 314 319 313 308 303 297 300 301 297 299 291 294 285 283 280 268 273 269 270 265 260 259 254 254 254 253 253 255 265 246 249 250 246 250
316 315 318 316 313 311 314 322 316 318 312 303 302 303 303 305 303 301 295 292 289 283 277 271 275 273 273 274 266 258 256 256 250 245 255 260 246 254 263 266 262 257 248
319 318 318 313 311 316 325 316 316 313 303 305 310 308 308 303 300 298 296 292 287 283 279 273 282 275 271 269 271 265 256 250 249 246 235 249 244 254 259 259 254 243 243
315 320 314 314 313 323 318 313 310 310 305 306 307 310 304 300 299 298 296 290 288 281 278 277 273 273 269 267 256 253 247 244 247 241 236 239 239 241 244 240 239 242 241
316 316 313 313 318 315 317 316 315 312 309 320 309 307 304 302 301 298 293 288 285 281 281 274 275 268 270 266 262 265 258 249 239 246 256 264 259 253 243 238 244 244 239
312 313 314 313 314 319 324 319 312 314 321 313 309 307 306 305 299 300 300 296 282 272 274 284 278 267 259 254 261 259 251 248 246 244 251 256 256 249 237 239 242 242 238
312 315 313 315 317 327 324 314 320 315 316 310 309 310 309 308 307 302 297 291 284 272 270 267 267 268 257 247 242 244 257 263 248 243 243 240 238 242 246 245 244 238 228
311 318 316 318 319 327 318 320 319 324 315 311 310 313 310 308 310 305 300 297 290 275 270 265 269 275 271 260 256 247 233 232 229 233 241 236 242 249 242 241 235 220 223
317 318 322 323 322 321 316 318 329 321 317 315 316 315 314 315 310 311 309 304 308 305 291 286 284 283 277 269 255 247 249 240 234 228 230 235 252 232 218 225 229 204 200